Location: Izdebno
(52.6670°N, 16.2170°E)
Time: 04:18:18
(UTC+02:00)

SR - Pass Details

Date: 25 February 2024
Orbit: 577 x 862 km, 66.7° (Epoch: 22 April)

Event Time Altitude Azimuth Distance (km) Brightness Sun altitude
Rises 14:20:00 0° 179° (S) 3,436 ? 22.1°
Reaches altitude 10° 14:22:49 10° 168° (SSE) 2,500 ? 21.8°
Maximum altitude 14:27:39 28° 112° (ESE) 1,559 ? 21.4°
Drops below altitude 10° 14:32:21 10° 56° (NE) 2,439 ? 21.0°
Sets 14:35:03 0° 45° (NE) 3,338 ? 20.7°
